COSMOS 2436 (723)

Last updated on Sun Apr 12 2026 00:03:25 GMT+0000 (Coordinated Universal Time)

1 32395U 07065C 26100.83864000 -.00000003 00000+0 00000+0 0 9990 2 32395 64.3248 194.2574 0017197 2.3150 41.0315 2.13100448142294
UTC large
Height (km)
Speed (km/s)
/
Latitude / Longitude
Inclination (degrees)
Orbital Period (minutes)
Azimuth
Elevation
Range (km)
Doppler Factor

Next 0 passes for location: London (51.5072 / 0.1276)

Sorry there are no passes over London.
COSMOS 2436 (723)